timestamp,wind_dir_avg,wind_spd_max_dir,wind_spd_avg,wind_spd_gust,battery_voltage,lat,long
2017-11-23 00:00:00+00:00,359.0,337.0,1.21,1.5,,47.59359,-54.27349
2017-11-23 00:10:00+00:00,40.0,46.0,1.65,1.97,,47.59359,-54.27349
2017-11-23 00:20:00+00:00,358.0,354.0,1.29,1.61,,47.59359,-54.27349
2017-11-23 00:30:00+00:00,40.0,46.0,1.6,1.87,,47.59359,-54.27349
2017-11-23 00:40:00+00:00,16.0,19.0,1.98,2.3,,47.59359,-54.27349
2017-11-23 00:50:00+00:00,52.0,50.0,2.31,2.71,,47.59359,-54.27349
2017-11-23 01:00:00+00:00,69.0,73.0,2.62,2.99,,47.59359,-54.27349
2017-11-23 01:10:00+00:00,44.0,43.0,2.78,3.28,,47.59359,-54.27349
2017-11-23 01:20:00+00:00,49.0,56.0,1.29,1.6,,47.59359,-54.27349
2017-11-23 01:30:00+00:00,60.0,57.0,1.58,1.86,,47.59359,-54.27349
2017-11-23 01:40:00+00:00,45.0,47.0,2.46,3.17,,47.59359,-54.27349
2017-11-23 01:50:00+00:00,45.0,45.0,2.27,2.73,,47.59359,-54.27349
2017-11-23 02:00:00+00:00,57.0,60.0,2.14,2.46,,47.59359,-54.27349
2017-11-23 02:10:00+00:00,95.0,97.0,1.9,2.29,,47.59359,-54.27349
2017-11-23 02:20:00+00:00,106.0,100.0,2.07,2.65,,47.59359,-54.27349
2017-11-23 02:30:00+00:00,96.0,94.0,1.79,2.9,,47.59359,-54.27349
2017-11-23 02:40:00+00:00,128.0,140.0,0.56,0.89,,47.59359,-54.27349
2017-11-23 02:50:00+00:00,154.0,159.0,1.87,2.15,,47.59359,-54.27349
2017-11-23 03:00:00+00:00,190.0,188.0,1.03,1.39,,47.59359,-54.27349
2017-11-23 03:10:00+00:00,180.0,180.0,1.13,1.4,,47.59359,-54.27349
2017-11-23 03:20:00+00:00,184.0,185.0,1.77,2.46,,47.59359,-54.27349
2017-11-23 03:30:00+00:00,172.0,167.0,2.84,3.12,,47.59359,-54.27349
2017-11-23 03:40:00+00:00,197.0,204.0,2.82,3.2,,47.59359,-54.27349
2017-11-23 03:50:00+00:00,176.0,178.0,3.73,4.21,,47.59359,-54.27349
2017-11-23 04:00:00+00:00,194.0,191.0,3.28,3.58,,47.59359,-54.27349
2017-11-23 04:10:00+00:00,189.0,189.0,3.08,3.48,,47.59359,-54.27349
2017-11-23 04:20:00+00:00,185.0,186.0,3.33,3.69,,47.59359,-54.27349
2017-11-23 04:30:00+00:00,167.0,166.0,3.28,3.71,,47.59359,-54.27349
2017-11-23 04:40:00+00:00,196.0,196.0,4.03,4.71,,47.59359,-54.27349
2017-11-23 04:50:00+00:00,203.0,207.0,3.92,4.22,,47.59359,-54.27349
2017-11-23 05:00:00+00:00,210.0,215.0,4.97,5.4,,47.59359,-54.27349
2017-11-23 05:10:00+00:00,203.0,207.0,4.16,4.47,,47.59359,-54.27349
2017-11-23 05:20:00+00:00,185.0,181.0,4.36,4.63,,47.59359,-54.27349
2017-11-23 05:30:00+00:00,186.0,186.0,4.53,5.04,,47.59359,-54.27349
2017-11-23 05:40:00+00:00,176.0,177.0,4.08,4.49,,47.59359,-54.27349
2017-11-23 05:50:00+00:00,152.0,150.0,3.33,4.0,,47.59359,-54.27349
2017-11-23 06:00:00+00:00,160.0,159.0,3.54,3.88,,47.59359,-54.27349
2017-11-23 06:10:00+00:00,157.0,159.0,3.71,4.36,,47.59359,-54.27349
2017-11-23 06:20:00+00:00,156.0,152.0,3.21,4.0,,47.59359,-54.27349
2017-11-23 06:30:00+00:00,150.0,152.0,3.06,3.47,,47.59359,-54.27349
2017-11-23 06:40:00+00:00,161.0,163.0,2.84,3.16,,47.59359,-54.27349
2017-11-23 06:50:00+00:00,163.0,160.0,3.1,3.5,,47.59359,-54.27349
2017-11-23 07:00:00+00:00,179.0,184.0,2.85,3.25,,47.59359,-54.27349
2017-11-23 07:10:00+00:00,177.0,176.0,3.93,4.91,,47.59359,-54.27349
2017-11-23 07:20:00+00:00,176.0,176.0,4.53,5.05,,47.59359,-54.27349
2017-11-23 07:30:00+00:00,176.0,175.0,3.75,4.48,,47.59359,-54.27349
2017-11-23 07:40:00+00:00,198.0,207.0,4.43,4.92,,47.59359,-54.27349
2017-11-23 07:50:00+00:00,195.0,198.0,5.7,6.11,,47.59359,-54.27349
2017-11-23 08:00:00+00:00,183.0,182.0,4.61,5.3,,47.59359,-54.27349
2017-11-23 08:10:00+00:00,176.0,177.0,4.2,4.57,,47.59359,-54.27349
2017-11-23 08:20:00+00:00,165.0,157.0,4.96,5.83,,47.59359,-54.27349
2017-11-23 08:30:00+00:00,178.0,182.0,4.0,5.44,,47.59359,-54.27349
2017-11-23 08:40:00+00:00,187.0,179.0,4.83,5.29,,47.59359,-54.27349
2017-11-23 08:50:00+00:00,167.0,168.0,3.69,4.19,,47.59359,-54.27349
2017-11-23 09:00:00+00:00,167.0,177.0,3.68,4.36,,47.59359,-54.27349
2017-11-23 09:10:00+00:00,160.0,176.0,3.61,4.43,,47.59359,-54.27349
2017-11-23 09:20:00+00:00,154.0,158.0,3.64,4.49,,47.59359,-54.27349
2017-11-23 09:30:00+00:00,137.0,139.0,2.25,3.46,,47.59359,-54.27349
2017-11-23 09:40:00+00:00,177.0,180.0,3.32,4.47,,47.59359,-54.27349
2017-11-23 09:50:00+00:00,189.0,199.0,3.53,4.28,,47.59359,-54.27349
2017-11-23 10:00:00+00:00,174.0,177.0,3.83,4.41,,47.59359,-54.27349
2017-11-23 10:10:00+00:00,155.0,158.0,6.08,6.69,,47.59359,-54.27349
2017-11-23 10:20:00+00:00,177.0,178.0,3.82,4.83,,47.59359,-54.27349
2017-11-23 10:30:00+00:00,181.0,185.0,5.97,7.11,,47.59359,-54.27349
2017-11-23 10:40:00+00:00,209.0,214.0,7.75,8.77,,47.59359,-54.27349
2017-11-23 10:50:00+00:00,213.0,203.0,5.01,5.72,,47.59359,-54.27349
2017-11-23 11:00:00+00:00,154.0,163.0,6.95,7.84,,47.59359,-54.27349
2017-11-23 11:10:00+00:00,154.0,153.0,6.45,7.33,,47.59359,-54.27349
2017-11-23 11:20:00+00:00,172.0,170.0,8.01,9.21,,47.59359,-54.27349
2017-11-23 11:30:00+00:00,166.0,171.0,6.09,7.26,,47.59359,-54.27349
2017-11-23 11:40:00+00:00,152.0,155.0,5.64,7.09,,47.59359,-54.27349
2017-11-23 11:50:00+00:00,146.0,144.0,9.64,11.14,,47.59359,-54.27349
2017-11-23 12:00:00+00:00,162.0,158.0,10.55,15.29,,47.59359,-54.27349
2017-11-23 12:10:00+00:00,154.0,145.0,9.82,11.47,,47.59359,-54.27349
2017-11-23 12:20:00+00:00,141.0,139.0,6.62,7.62,,47.59359,-54.27349
2017-11-23 12:30:00+00:00,130.0,131.0,4.78,7.49,,47.59359,-54.27349
2017-11-23 12:40:00+00:00,160.0,161.0,4.58,6.79,,47.59359,-54.27349
2017-11-23 12:50:00+00:00,167.0,175.0,11.64,13.73,,47.59359,-54.27349
2017-11-23 13:00:00+00:00,158.0,157.0,14.95,17.04,,47.59359,-54.27349
2017-11-23 13:10:00+00:00,164.0,162.0,14.79,17.23,,47.59359,-54.27349
2017-11-23 13:20:00+00:00,160.0,162.0,14.77,17.98,,47.59359,-54.27349
2017-11-23 13:30:00+00:00,157.0,158.0,13.91,15.93,,47.59359,-54.27349
2017-11-23 13:40:00+00:00,159.0,167.0,13.7,15.89,,47.59359,-54.27349
2017-11-23 13:50:00+00:00,173.0,175.0,13.75,16.18,,47.59359,-54.27349
2017-11-23 14:00:00+00:00,167.0,170.0,14.67,19.17,,47.59359,-54.27349
2017-11-23 14:10:00+00:00,163.0,163.0,13.84,16.67,,47.59359,-54.27349
2017-11-23 14:20:00+00:00,163.0,161.0,14.68,18.49,,47.59359,-54.27349
2017-11-23 14:30:00+00:00,167.0,170.0,13.64,16.11,,47.59359,-54.27349
2017-11-23 14:40:00+00:00,166.0,169.0,15.67,18.57,,47.59359,-54.27349
2017-11-23 14:50:00+00:00,167.0,168.0,18.59,22.42,,47.59359,-54.27349
2017-11-23 15:00:00+00:00,170.0,172.0,18.68,22.58,,47.59359,-54.27349
2017-11-23 15:10:00+00:00,171.0,175.0,18.11,21.58,,47.59359,-54.27349
2017-11-23 15:20:00+00:00,171.0,172.0,18.87,25.52,,47.59359,-54.27349
2017-11-23 15:30:00+00:00,175.0,177.0,17.98,21.2,,47.59359,-54.27349
2017-11-23 15:40:00+00:00,178.0,179.0,20.08,23.71,,47.59359,-54.27349
2017-11-23 15:50:00+00:00,184.0,194.0,17.25,19.42,,47.59359,-54.27349
2017-11-23 16:00:00+00:00,193.0,187.0,17.03,20.06,,47.59359,-54.27349
2017-11-23 16:10:00+00:00,202.0,199.0,19.05,23.18,,47.59359,-54.27349
2017-11-23 16:20:00+00:00,202.0,207.0,19.79,25.09,,47.59359,-54.27349
2017-11-23 16:30:00+00:00,205.0,210.0,19.77,24.4,,47.59359,-54.27349
2017-11-23 16:40:00+00:00,200.0,204.0,18.9,23.94,,47.59359,-54.27349
2017-11-23 16:50:00+00:00,208.0,205.0,16.61,21.5,,47.59359,-54.27349
2017-11-23 17:00:00+00:00,214.0,211.0,18.66,22.85,,47.59359,-54.27349
2017-11-23 17:10:00+00:00,222.0,225.0,18.0,21.46,,47.59359,-54.27349
2017-11-23 17:20:00+00:00,228.0,226.0,19.56,23.7,,47.59359,-54.27349
2017-11-23 17:30:00+00:00,228.0,227.0,19.22,22.58,,47.59359,-54.27349
2017-11-23 17:40:00+00:00,235.0,236.0,17.31,20.35,,47.59359,-54.27349
2017-11-23 17:50:00+00:00,230.0,231.0,17.48,22.62,,47.59359,-54.27349
2017-11-23 18:00:00+00:00,229.0,235.0,18.21,21.26,,47.59359,-54.27349
2017-11-23 18:10:00+00:00,229.0,231.0,17.32,21.93,,47.59359,-54.27349
2017-11-23 18:20:00+00:00,237.0,236.0,18.8,23.6,,47.59359,-54.27349
2017-11-23 18:30:00+00:00,238.0,241.0,17.93,23.0,,47.59359,-54.27349
2017-11-23 18:40:00+00:00,240.0,240.0,16.53,20.94,,47.59359,-54.27349
2017-11-23 18:50:00+00:00,245.0,236.0,15.23,21.52,,47.59359,-54.27349
2017-11-23 19:00:00+00:00,246.0,249.0,16.15,20.87,,47.59359,-54.27349
2017-11-23 19:10:00+00:00,242.0,234.0,14.25,16.54,,47.59359,-54.27349
2017-11-23 19:20:00+00:00,240.0,242.0,15.9,18.12,,47.59359,-54.27349
2017-11-23 19:30:00+00:00,246.0,250.0,16.0,19.36,,47.59359,-54.27349
2017-11-23 19:40:00+00:00,248.0,254.0,16.28,19.36,,47.59359,-54.27349
2017-11-23 19:50:00+00:00,245.0,246.0,17.01,19.36,,47.59359,-54.27349
2017-11-23 20:00:00+00:00,245.0,248.0,13.28,15.46,,47.59359,-54.27349
2017-11-23 20:10:00+00:00,247.0,246.0,16.72,21.06,,47.59359,-54.27349
2017-11-23 20:20:00+00:00,242.0,253.0,16.83,21.62,,47.59359,-54.27349
2017-11-23 20:30:00+00:00,245.0,260.0,14.97,18.26,,47.59359,-54.27349
2017-11-23 20:40:00+00:00,250.0,263.0,16.56,19.75,,47.59359,-54.27349
2017-11-23 20:50:00+00:00,249.0,254.0,14.14,17.06,,47.59359,-54.27349
2017-11-23 21:00:00+00:00,244.0,247.0,14.24,18.63,,47.59359,-54.27349
2017-11-23 21:10:00+00:00,246.0,253.0,17.24,20.32,,47.59359,-54.27349
2017-11-23 21:20:00+00:00,252.0,250.0,17.27,20.1,,47.59359,-54.27349
2017-11-23 21:30:00+00:00,253.0,258.0,15.58,17.45,,47.59359,-54.27349
2017-11-23 21:40:00+00:00,266.0,268.0,19.1,22.42,,47.59359,-54.27349
2017-11-23 21:50:00+00:00,253.0,257.0,17.92,23.74,,47.59359,-54.27349
2017-11-23 22:00:00+00:00,257.0,257.0,13.9,16.09,,47.59359,-54.27349
2017-11-23 22:10:00+00:00,258.0,254.0,16.28,19.82,,47.59359,-54.27349
2017-11-23 22:20:00+00:00,252.0,255.0,15.72,20.54,,47.59359,-54.27349
2017-11-23 22:30:00+00:00,247.0,254.0,16.18,19.17,,47.59359,-54.27349
2017-11-23 22:40:00+00:00,257.0,255.0,14.19,18.84,,47.59359,-54.27349
2017-11-23 22:50:00+00:00,261.0,262.0,13.5,15.91,,47.59359,-54.27349
2017-11-23 23:00:00+00:00,251.0,250.0,13.17,15.97,,47.59359,-54.27349
2017-11-23 23:10:00+00:00,259.0,258.0,13.77,17.26,,47.59359,-54.27349
2017-11-23 23:20:00+00:00,265.0,261.0,13.3,14.39,,47.59359,-54.27349
2017-11-23 23:30:00+00:00,258.0,260.0,15.38,18.06,,47.59359,-54.27349
2017-11-23 23:40:00+00:00,262.0,268.0,15.05,18.72,,47.59359,-54.27349
2017-11-23 23:50:00+00:00,262.0,257.0,19.39,22.79,,47.59359,-54.27349
